When you browse on this site, cookies collect data to enhance your experience and personalize the content and advertising you see.
Visit our Privacy Policy to learn more. By continuing to use the site, you agree to this use of cookies and data.
  • In Netherlands
  • List of Countries
  • For 7 days
  • Water Temperature
  • Satellite Maps
  • Weather Map
  • Weather Widgets
  • user-avatar
    Login

    Hourly Weather Algiers

    Today, 10 December, Monday

    Time Temperature Precipitation Wind Pressure Humidity
    00:00 +15°C° 0 mm 1 mps 758 mmHg 56%
    01:00 +14°C° 0 mm 1 mps 757 mmHg 60%
    02:00 +14°C° 0 mm 1 mps 757 mmHg 63%
    03:00 +13°C° 0 mm 1 mps 757 mmHg 66%
    04:00 +13°C° 0 mm 1 mps 757 mmHg 68%
    05:00 +13°C° 0 mm 1 mps 757 mmHg 69%
    06:00 +13°C° 0 mm 1 mps 757 mmHg 71%
    07:00 +14°C° 0 mm 1 mps 757 mmHg 67%
    08:00 +16°C° 0 mm 1 mps 757 mmHg 62%
    09:00 +18°C° 0 mm 1 mps 758 mmHg 57%
    10:00 +19°C° 0 mm 1 mps 757 mmHg 53%
    11:00 +20°C° 0 mm 1 mps 757 mmHg 49%
    12:00 +20°C° 0 mm 2 mps 757 mmHg 45%
    13:00 +20°C° 0 mm 2 mps 757 mmHg 48%
    14:00 +20°C° 0 mm 3 mps 756 mmHg 51%
    15:00 +19°C° 0 mm 3 mps 756 mmHg 54%
    16:00 +18°C° 0 mm 3 mps 756 mmHg 63%
    17:00 +16°C° 0 mm 3 mps 756 mmHg 71%
    18:00 +14°C° 0 mm 2 mps 756 mmHg 80%
    19:00 +14°C° 0 mm 2 mps 756 mmHg 80%
    20:00 +14°C° 0 mm 2 mps 756 mmHg 79%
    21:00 +14°C° 0 mm 2 mps 756 mmHg 79%
    22:00 +14°C° 0 mm 2 mps 756 mmHg 77%
    23:00 +13°C° 0 mm 2 mps 755 mmHg 74%

    Tomorrow, 11 December, Tuesday

    Time Temperature Precipitation Wind Pressure Humidity
    00:00 +13°C° 0 mm 2 mps 755 mmHg 72%
    01:00 +13°C° 0 mm 2 mps 755 mmHg 70%
    02:00 +13°C° 0 mm 2 mps 754 mmHg 68%
    03:00 +13°C° 0 mm 2 mps 754 mmHg 66%
    04:00 +12°C° 0 mm 1 mps 754 mmHg 64%
    05:00 +12°C° 0 mm 1 mps 754 mmHg 62%
    06:00 +12°C° 0 mm 1 mps 754 mmHg 61%
    07:00 +14°C° 0 mm 1 mps 754 mmHg 55%
    08:00 +15°C° 0 mm 1 mps 754 mmHg 49%
    09:00 +18°C° 0 mm 1 mps 754 mmHg 43%
    10:00 +19°C° 0 mm 1 mps 754 mmHg 40%
    11:00 +20°C° 0 mm 1 mps 753 mmHg 36%
    12:00 +21°C° 0 mm 1 mps 753 mmHg 32%
    13:00 +21°C° 0 mm 1 mps 753 mmHg 34%
    14:00 +21°C° 0 mm 1 mps 753 mmHg 37%
    15:00 +21°C° 0 mm 1 mps 752 mmHg 39%
    16:00 +19°C° 0 mm 1 mps 752 mmHg 46%
    17:00 +16°C° 0 mm 1 mps 753 mmHg 53%
    18:00 +14°C° 0 mm 0 mps 753 mmHg 60%
    19:00 +14°C° 0 mm 1 mps 753 mmHg 58%
    20:00 +14°C° 0 mm 1 mps 753 mmHg 57%
    21:00 +14°C° 0 mm 1 mps 753 mmHg 55%
    22:00 +14°C° 0 mm 1 mps 753 mmHg 53%
    23:00 +14°C° 0 mm 2 mps 753 mmHg 52%

    Day after tomorrow, 12 December, Wednesday

    Time Temperature Precipitation Wind Pressure Humidity
    00:00 +14°C° 0 mm 2 mps 753 mmHg 50%
    01:00 +14°C° 0 mm 2 mps 753 mmHg 49%
    02:00 +14°C° 0 mm 2 mps 752 mmHg 49%
    03:00 +13°C° 0 mm 2 mps 752 mmHg 48%
    04:00 +13°C° 0 mm 2 mps 752 mmHg 48%
    05:00 +13°C° 0 mm 2 mps 753 mmHg 48%
    06:00 +12°C° 0 mm 3 mps 753 mmHg 49%
    07:00 +13°C° 0 mm 3 mps 753 mmHg 46%
    08:00 +16°C° 0 mm 3 mps 753 mmHg 44%
    09:00 +17°C° 0 mm 3 mps 753 mmHg 41%
    10:00 +18°C° 0 mm 3 mps 753 mmHg 40%
    11:00 +19°C° 0 mm 3 mps 753 mmHg 38%
    12:00 +20°C° 0 mm 3 mps 752 mmHg 36%
    13:00 +20°C° 0 mm 3 mps 752 mmHg 39%
    14:00 +20°C° 0 mm 3 mps 752 mmHg 42%
    15:00 +20°C° 0 mm 3 mps 751 mmHg 45%
    16:00 +18°C° 0 mm 3 mps 751 mmHg 54%
    17:00 +16°C° 0 mm 2 mps 751 mmHg 62%
    18:00 +15°C° 0 mm 2 mps 751 mmHg 70%
    19:00 +15°C° 0 mm 2 mps 751 mmHg 67%
    20:00 +14°C° 0 mm 2 mps 751 mmHg 64%
    21:00 +14°C° 0 mm 2 mps 751 mmHg 61%
    22:00 +13°C° 0 mm 3 mps 751 mmHg 58%
    23:00 +13°C° 0 mm 3 mps 751 mmHg 55%

    13 December, Thursday

    Time Temperature Precipitation Wind Pressure Humidity
    00:00 +14°C° 0 mm 3 mps 751 mmHg 52%
    01:00 +13°C° 0 mm 3 mps 751 mmHg 53%
    02:00 +13°C° 0 mm 3 mps 751 mmHg 54%
    03:00 +13°C° 0 mm 3 mps 750 mmHg 55%
    04:00 +13°C° 0 mm 3 mps 750 mmHg 55%
    05:00 +13°C° 0 mm 4 mps 750 mmHg 56%
    06:00 +13°C° 0 mm 4 mps 750 mmHg 57%
    07:00 +14°C° 0 mm 4 mps 750 mmHg 54%
    08:00 +15°C° 0 mm 4 mps 750 mmHg 51%
    09:00 +17°C° 0 mm 4 mps 751 mmHg 48%
    10:00 +17°C° 0 mm 5 mps 750 mmHg 46%
    11:00 +19°C° 0 mm 6 mps 750 mmHg 43%
    12:00 +20°C° 0 mm 7 mps 750 mmHg 40%
    13:00 +20°C° 0 mm 6 mps 750 mmHg 42%
    14:00 +19°C° 0 mm 6 mps 749 mmHg 45%
    15:00 +19°C° 0 mm 6 mps 749 mmHg 47%
    16:00 +17°C° 0 mm 6 mps 749 mmHg 52%
    17:00 +16°C° 0 mm 6 mps 750 mmHg 58%
    18:00 +15°C° 0 mm 6 mps 750 mmHg 63%
    19:00 +15°C° 0.1 mm 6 mps 750 mmHg 66%
    20:00 +14°C° 0.1 mm 6 mps 750 mmHg 70%
    21:00 +14°C° 0.1 mm 6 mps 750 mmHg 73%
    22:00 +14°C° 0.2 mm 6 mps 750 mmHg 75%
    23:00 +14°C° 0.2 mm 6 mps 750 mmHg 77%

    14 December, Friday

    Time Temperature Precipitation Wind Pressure Humidity
    00:00 +14°C° 0.2 mm 6 mps 750 mmHg 78%
    01:00 +14°C° 0.3 mm 6 mps 751 mmHg 82%
    02:00 +14°C° 0.3 mm 5 mps 751 mmHg 85%
    03:00 +14°C° 0.3 mm 4 mps 751 mmHg 89%
    04:00 +14°C° 0 mm 4 mps 751 mmHg 87%
    05:00 +13°C° 0 mm 4 mps 751 mmHg 86%
    06:00 +13°C° 0 mm 3 mps 751 mmHg 85%
    07:00 +13°C° 0 mm 3 mps 752 mmHg 79%
    08:00 +14°C° 0 mm 3 mps 753 mmHg 73%
    09:00 +14°C° 0 mm 3 mps 753 mmHg 68%
    10:00 +15°C° 0 mm 4 mps 753 mmHg 62%
    11:00 +16°C° 0 mm 5 mps 753 mmHg 56%
    12:00 +17°C° 0 mm 6 mps 753 mmHg 50%
    13:00 +17°C° 0 mm 7 mps 753 mmHg 50%
    14:00 +16°C° 0 mm 7 mps 753 mmHg 50%
    15:00 +16°C° 0 mm 8 mps 753 mmHg 50%
    16:00 +15°C° 0 mm 7 mps 753 mmHg 56%
    17:00 +14°C° 0 mm 6 mps 753 mmHg 62%
    18:00 +13°C° 0 mm 5 mps 754 mmHg 69%
    19:00 +12°C° 0 mm 5 mps 754 mmHg 70%
    20:00 +12°C° 0 mm 5 mps 754 mmHg 70%
    21:00 +12°C° 0 mm 5 mps 754 mmHg 71%
    22:00 +12°C° 0 mm 5 mps 755 mmHg 70%
    23:00 +12°C° 0 mm 5 mps 755 mmHg 70%

    15 December, Saturday

    Time Temperature Precipitation Wind Pressure Humidity
    00:00 +12°C° 0 mm 5 mps 755 mmHg 69%
    01:00 +12°C° 0 mm 5 mps 755 mmHg 69%
    02:00 +12°C° 0 mm 5 mps 755 mmHg 69%
    03:00 +12°C° 0 mm 5 mps 755 mmHg 68%
    04:00 +12°C° 0 mm 5 mps 755 mmHg 69%
    05:00 +12°C° 0 mm 5 mps 755 mmHg 69%
    06:00 +12°C° 0 mm 5 mps 755 mmHg 69%
    07:00 +13°C° 0 mm 5 mps 755 mmHg 66%
    08:00 +14°C° 0 mm 5 mps 755 mmHg 62%
    09:00 +17°C° 0 mm 4 mps 756 mmHg 59%
    10:00 +17°C° 0 mm 5 mps 756 mmHg 54%
    11:00 +20°C° 0 mm 5 mps 755 mmHg 50%
    12:00 +21°C° 0 mm 5 mps 755 mmHg 46%
    13:00 +21°C° 0 mm 5 mps 755 mmHg 47%
    14:00 +21°C° 0 mm 5 mps 755 mmHg 47%
    15:00 +21°C° 0 mm 4 mps 755 mmHg 48%
    16:00 +19°C° 0 mm 4 mps 755 mmHg 55%
    17:00 +17°C° 0 mm 3 mps 755 mmHg 62%
    18:00 +16°C° 0 mm 3 mps 756 mmHg 68%
    19:00 +16°C° 0 mm 3 mps 756 mmHg 68%
    20:00 +15°C° 0 mm 2 mps 756 mmHg 67%
    21:00 +15°C° 0 mm 2 mps 756 mmHg 66%
    22:00 +15°C° 0 mm 2 mps 756 mmHg 65%
    23:00 +15°C° 0 mm 2 mps 756 mmHg 64%
    Show more